Change the Weather History Date:

Monday, August 19, 2013

  Actual Average Record
Temperature  
Mean Temperature 78 °F -  
Max Temperature 89 °F 77 °F 100 °F (1976)
Min Temperature 68 °F 52 °F 36 °F (1977)
Cooling Degree Days 12    
Growing Degree Days 28 (Base 50)    
Moisture  
Dew Point 64 °F    
Average Humidity 66    
Maximum Humidity 79    
Minimum Humidity 49    
Precipitation  
Precipitation 0.00 in - - ()
Sea Level Pressure  
Sea Level Pressure 29.90 in    
Wind  
Wind Speed 8 mph (SSW)    
Max Wind Speed 10 mph    
Max Gust Speed 20 mph    
Visibility 10 miles    
Events Rain    
Averages and records for this station are not official NWS values.
T = Trace of Precipitation, MM = Missing Value Source: NWS Daily Summary

Daily Weather History Graph

Daily Weather History Graph

Search for Another Location

Airport or City:

Trip Planner

Search our weather history database for the weather conditions in past years. The results will help you decide how hot, cold, wet, or windy it might be!

Date:

Astronomy

Aug. 19, 2013 Rise Set
Actual Time 6:20 AM CDT 8:18 PM CDT
Civil Twilight 5:48 AM CDT 8:50 PM CDT
Nautical Twilight 5:08 AM CDT 9:30 PM CDT
Astronomical Twilight 4:23 AM CDT 10:14 PM CDT
Moon 7:10 PM CDT (8/19) 4:38 AM CDT (8/19)
Length of Visible Light 15h 02m
Length of Day
13h 58m
Waxing Gibbous, 97% of the Moon is Illuminated
Aug 19
Waxing Gibbous
Aug 20
Full
Aug 28
Last Quarter
Sep 5
New
Sep 12
First Quarter

Hourly Weather History & Observations

Time (CDT) Temp. Heat Index Dew Point Humidity Pressure Visibility Wind Dir Wind Speed Gust Speed Precip Events Conditions
12:53 AM 71.1 °F - 57.9 °F 63% 29.95 in 10.0 mi South 10.4 mph - N/A   Clear
1:53 AM 71.1 °F - 59.0 °F 66% 29.95 in 10.0 mi SW 10.4 mph - N/A   Clear
2:53 AM 70.0 °F - 61.0 °F 73% 29.94 in 10.0 mi SSW 10.4 mph - 0.00 in Rain Light Rain
3:53 AM 70.0 °F - 60.1 °F 71% 29.93 in 10.0 mi SSW 6.9 mph - 0.00 in   Clear
4:53 AM 69.1 °F - 61.0 °F 75% 29.91 in 10.0 mi South 5.8 mph - N/A   Partly Cloudy
5:53 AM 69.1 °F - 61.0 °F 75% 29.90 in 10.0 mi South 5.8 mph - 0.00 in   Clear
6:53 AM 68.0 °F - 61.0 °F 78% 29.91 in 9.0 mi SSW 4.6 mph - 0.00 in   Clear
7:53 AM 69.1 °F - 62.1 °F 78% 29.92 in 9.0 mi SSW 5.8 mph - N/A   Clear
8:53 AM 71.1 °F - 62.1 °F 73% 29.93 in 9.0 mi SSW 5.8 mph - N/A   Clear
9:53 AM 73.9 °F - 63.0 °F 68% 29.94 in 10.0 mi SSW 6.9 mph - N/A   Clear
10:53 AM 75.9 °F - 64.0 °F 67% 29.93 in 10.0 mi SSE 3.5 mph - N/A   Clear
11:53 AM 80.1 °F 81.9 °F 64.9 °F 60% 29.92 in 10.0 mi South 4.6 mph - N/A   Clear
12:53 PM 82.9 °F 85.0 °F 66.0 °F 56% 29.91 in 10.0 mi South 6.9 mph - N/A   Clear
1:53 PM 84.0 °F 86.3 °F 66.0 °F 55% 29.90 in 10.0 mi South 9.2 mph - N/A   Overcast
2:53 PM 87.1 °F 89.2 °F 66.0 °F 49% 29.90 in 10.0 mi SW 10.4 mph 19.6 mph N/A   Mostly Cloudy
3:53 PM 87.1 °F 89.2 °F 66.0 °F 49% 29.88 in 10.0 mi SSW 8.1 mph - N/A   Clear
4:53 PM 86.0 °F 87.6 °F 64.9 °F 49% 29.87 in 10.0 mi SW 9.2 mph - N/A   Scattered Clouds
5:53 PM 84.9 °F 87.1 °F 66.0 °F 53% 29.86 in 10.0 mi South 6.9 mph - N/A   Partly Cloudy
6:53 PM 82.0 °F 84.1 °F 66.0 °F 58% 29.86 in 9.0 mi South 4.6 mph - N/A   Clear
7:53 PM 80.1 °F 82.3 °F 66.9 °F 64% 29.86 in 9.0 mi Calm Calm - N/A   Clear
8:53 PM 75.9 °F - 66.9 °F 74% 29.87 in 9.0 mi SSE 4.6 mph - N/A   Clear
9:53 PM 75.9 °F - 68.0 °F 76% 29.88 in 8.0 mi South 6.9 mph - N/A   Clear
10:53 PM 75.0 °F - 68.0 °F 79% 29.87 in 8.0 mi South 6.9 mph - N/A   Clear
11:53 PM 73.9 °F - 66.9 °F 79% 29.87 in 7.0 mi South 6.9 mph - N/A   Clear